Weather History for Pompano Beach, FL

Change the Weather History Date:

Tuesday, December 11, 2012

  Actual Average Record
Temperature  
Mean Temperature 76 °F -  
Max Temperature 82 °F 78 °F 87 °F (1988)
Min Temperature 69 °F 62 °F 32 °F (1962)
Cooling Degree Days 10    
Growing Degree Days 26 (Base 50)    
Moisture  
Dew Point 75 °F    
Average Humidity 96    
Maximum Humidity 100    
Minimum Humidity 77    
Precipitation  
Precipitation 0.29 in - - ()
Sea Level Pressure  
Sea Level Pressure 29.99 in    
Wind  
Wind Speed 9 mph (South)    
Max Wind Speed 17 mph    
Max Gust Speed 25 mph    
Visibility 10 miles    
Events Rain , Thunderstorm    
Averages and records for this station are not official NWS values.
T = Trace of Precipitation, MM = Missing Value Source: NWS Daily Summary

Daily Weather History Graph

Daily Weather History Graph

Search for Another Location

Airport:

Trip Planner

Search our weather history database for the weather conditions in past years. The results will help you decide how hot, cold, wet, or windy it might be!

Date:

Astronomy

Dec. 11, 2012 Rise Set
Actual Time 6:58 AM EST 5:29 PM EST
Civil Twilight 6:32 AM EST 5:54 PM EST
Nautical Twilight 6:04 AM EST 6:23 PM EST
Astronomical Twilight 5:35 AM EST 6:51 PM EST
Moon 4:56 AM EST (12/11) 4:03 PM EST (12/11)
Length of Visible Light 11h 22m
Length of Day
10h 31m
Waning Crescent, 4% of the Moon is Illuminated
Dec 11
Waning Crescent
Dec 13
New
Dec 20
First Quarter
Dec 28
Full
Jan 4
Last Quarter

Hourly Weather History & Observations

Time (EST) Temp. Heat Index Dew Point Humidity Pressure Visibility Wind Dir Wind Speed Gust Speed Precip Events Conditions
12:04 AM 75.2 °F - 75.2 °F 100% 29.97 in 10.0 mi South 9.2 mph - N/A   Scattered Clouds
12:27 AM 77.0 °F - 75.2 °F 94% 29.97 in 10.0 mi SSE 10.4 mph - N/A   Mostly Cloudy
12:42 AM 75.2 °F - 75.2 °F 100% 29.96 in 10.0 mi South 9.2 mph - N/A   Scattered Clouds
12:53 AM 75.9 °F - 75.0 °F 97% 29.96 in 10.0 mi SSE 10.4 mph - N/A   Partly Cloudy
1:53 AM 75.9 °F - 75.0 °F 97% 29.96 in 10.0 mi SSE 10.4 mph - N/A   Partly Cloudy
2:45 AM 75.2 °F - 75.2 °F 100% 29.96 in 10.0 mi South 6.9 mph 18.4 mph N/A   Mostly Cloudy
2:53 AM 75.9 °F - 75.0 °F 97% 29.96 in 10.0 mi SSE 9.2 mph - N/A   Mostly Cloudy
3:44 AM 75.2 °F - 75.2 °F 100% 29.96 in 10.0 mi SW 6.9 mph - 0.00 in Rain , Thunderstorm Light Rain
3:53 AM 75.0 °F - 75.0 °F 100% 29.97 in 10.0 mi SW 15.0 mph 25.3 mph 0.01 in Rain , Thunderstorm Light Rain
4:13 AM 71.6 °F - 71.6 °F 100% 29.96 in 2.5 mi SW 9.2 mph - 0.25 in Rain , Thunderstorm Rain
4:20 AM 71.6 °F - 71.6 °F 100% 29.96 in 6.0 mi South 10.4 mph - 0.27 in Rain , Thunderstorm Rain
4:32 AM 69.8 °F - 69.8 °F 100% 29.94 in 10.0 mi South 8.1 mph - 0.28 in Rain Light Rain
4:53 AM 70.0 °F - 70.0 °F 100% 29.94 in 10.0 mi South 5.8 mph - 0.28 in   Mostly Cloudy
5:53 AM 70.0 °F - 70.0 °F 100% 29.97 in 10.0 mi South 3.5 mph - N/A   Clear
6:53 AM 70.0 °F - 70.0 °F 100% 29.96 in 10.0 mi South 4.6 mph - N/A   Clear
7:53 AM 73.0 °F - 73.0 °F 100% 30.01 in 10.0 mi West 6.9 mph - N/A   Clear
8:53 AM 75.9 °F - 75.9 °F 100% 30.01 in 10.0 mi SSW 9.2 mph - N/A   Clear
9:53 AM 79.0 °F - 75.9 °F 90% 30.01 in 10.0 mi South 10.4 mph - N/A   Clear
10:53 AM 81.0 °F 86.7 °F 75.0 °F 82% 30.03 in 10.0 mi South 11.5 mph - N/A   Partly Cloudy
11:53 AM 82.9 °F 90.2 °F 75.0 °F 77% 30.01 in 10.0 mi SW 9.2 mph - N/A   Scattered Clouds
12:53 PM 82.0 °F 90.2 °F 77.0 °F 85% 29.97 in 10.0 mi SSE 16.1 mph - N/A   Scattered Clouds
1:53 PM 81.0 °F 87.9 °F 77.0 °F 88% 29.96 in 10.0 mi SSE 17.3 mph 24.2 mph N/A   Clear
2:53 PM 80.1 °F 85.4 °F 75.9 °F 87% 29.96 in 10.0 mi South 13.8 mph - N/A   Scattered Clouds
3:53 PM 80.1 °F 85.4 °F 75.9 °F 87% 29.96 in 10.0 mi SSE 13.8 mph - N/A   Clear
4:45 PM 78.8 °F - 77.0 °F 94% 29.95 in 10.0 mi South 13.8 mph - N/A   Partly Cloudy
4:53 PM 78.1 °F - 77.0 °F 96% 29.96 in 10.0 mi SSE 10.4 mph - N/A   Scattered Clouds
5:18 PM 78.8 °F - 77.0 °F 94% 29.96 in 10.0 mi SSE 11.5 mph - N/A   Mostly Cloudy
5:53 PM 78.1 °F - 77.0 °F 96% 29.96 in 10.0 mi SSE 11.5 mph - N/A   Mostly Cloudy
6:25 PM 77.0 °F - 77.0 °F 100% 29.96 in 10.0 mi South 12.7 mph 17.3 mph N/A   Mostly Cloudy
6:27 PM 77.0 °F - 77.0 °F 100% 29.97 in 10.0 mi SSE 9.2 mph - N/A   Mostly Cloudy
6:53 PM 77.0 °F - 75.9 °F 96% 29.98 in 10.0 mi South 11.5 mph - N/A   Mostly Cloudy
7:51 PM 77.0 °F - 75.2 °F 94% 30.00 in 10.0 mi South 6.9 mph - N/A   Scattered Clouds
7:53 PM 77.0 °F - 75.9 °F 96% 30.00 in 10.0 mi SSE 8.1 mph - N/A   Scattered Clouds
8:26 PM 77.0 °F - 75.2 °F 94% 30.01 in 10.0 mi SSE 6.9 mph - N/A   Mostly Cloudy
8:39 PM 77.0 °F - 75.2 °F 94% 30.02 in 10.0 mi South 6.9 mph - N/A   Scattered Clouds
8:53 PM 77.0 °F - 75.9 °F 96% 30.04 in 10.0 mi South 5.8 mph - N/A   Scattered Clouds
9:53 PM 77.0 °F - 75.9 °F 96% 30.06 in 10.0 mi South 4.6 mph - N/A   Partly Cloudy
10:53 PM 77.0 °F - 75.9 °F 96% 30.06 in 10.0 mi Calm Calm - N/A   Scattered Clouds
11:39 PM 75.2 °F - 75.2 °F 100% 30.06 in 10.0 mi SSE 3.5 mph - N/A   Mostly Cloudy
11:45 PM 75.2 °F - 75.2 °F 100% 30.06 in 10.0 mi South 5.8 mph - N/A   Scattered Clouds
11:53 PM 75.9 °F - 75.9 °F 100% 30.06 in 10.0 mi South 5.8 mph - N/A   Partly Cloudy